Starlink 11178

operational
NORAD ID: 62465 Int'l Des: 2024-254 Owner: SPXS Country: US Constellation: starlink
LEOCIRCULAR

Starlink 11178について

説明を読み込み中...

リアルタイム位置

3D地球を読み込み中...

次回通過

高度履歴

Altitude vs Time

uPlot chart will show altitude changes over time

軌道要素

1 62465U 24254D 25346.16815097 .00379178 00000-0 27860-2 0 9997
2 62465 42.9995 30.7770 0002947 298.0500 62.0070 15.71178212 55474
Epoch: Dec 12, 2025 • Age: 21 hours

現在のステータス

高度 365.1 km
速度 7.69 km/s
衛星直下点 -41.70°S, 178.89°W
打ち上げ日 Dec 31, 2024
運用期間 0.9 years
タイプ internet

技術仕様

分類 Payload
質量 960.00 kg
乾燥質量 910.00 kg
総質量 960.00 kg
長さ 0.30 m
直径 4.10 m
スパン 29.00 m
形状 Box + pan
製造者 SPXS
バスタイプ Starlink V2MD
フェーズステータス In Orbit
所有者/国 SPXS/US

大規模コンステレーション

Loading constellations...